Home > Time Zones > World Clock > Weather > U.S.A. > Nome > Past weeks

Flag for U.S.A. Weather past 2 weeks in Nome, Alaska, U.S.A.

Now
62 °F

Broken clouds.


Feels Like: 62 °F
Forecast: 51 / 60 °F
Wind: 9 mph from West

Location: Nome Airport

Current Time: Jul 29, 2014 at 11:40:03 PM

Latest Report: Jul 29, 2014 at 10:53 PM


Visibility: 10 mi

Pressure: 30.26 "Hg

Humidity: 56%

Dew point: 46 °F

Location of NomeLocation

Historic Weather in Nome — Graph

°F

Nome temperature yesterday

Maximum temperature yesterday: 63 °F (at 4:53 PM)
Minimum temperature yesterday: 46 °F (at 3:53 AM)
Average temperature yesterday: 55 °F

Past Weeks' High & Low Weather Summary

 TemperatureHumidityPressure
High65 °F (Jul 29, 9:53 PM)100% (Jul 14, 9:53 PM)30.29 "Hg (Jul 14, 9:53 PM)
Low35 °F (Jul 25, 4:53 AM)42% (Jul 24, 2:53 PM)29.43 "Hg (Jul 19, 9:53 AM)
Average49 °F83%29.92 "Hg
* Reported Jul 14 9:53 PM — Jul 29 9:53 PM, Nome, Weather by CustomWeather, © 2014

Note: Actual official high and low records may vary slightly from our data, if they occured in-between our weather recording intervals... More about our weather records

Advertising

Nome weather history for previous 24 hours

 ConditionsComfort  
Time TempWeatherWind HumidityBarometerVisibility
9:53 PM
Jul 29
65 °FSunny.10 mph51%30.26 "Hg10 mi
8:53 PM62 °FBroken clouds.13 mph65%30.27 "Hg10 mi
7:53 PM60 °FBroken clouds.16 mph67%30.27 "Hg10 mi
6:53 PM61 °FBroken clouds.15 mph60%30.27 "Hg10 mi
5:53 PM62 °FScattered clouds.15 mph58%30.28 "Hg10 mi
4:53 PM60 °FScattered clouds.15 mph69%30.29 "Hg10 mi
3:53 PM62 °FScattered clouds.14 mph58%30.29 "Hg10 mi
2:53 PM62 °FScattered clouds.14 mph54%30.29 "Hg10 mi
1:53 PM62 °FPassing clouds.13 mph52%30.29 "Hg10 mi
12:53 PM61 °FPassing clouds.10 mph56%30.28 "Hg10 mi
11:53 AM62 °FPassing clouds.7 mph56%30.29 "Hg10 mi
10:53 AM63 °FSunny.3 mph50%30.28 "Hg10 mi
9:53 AM60 °FSunny.No wind62%30.28 "Hg10 mi
8:53 AM54 °FSunny.No wind72%30.29 "Hg10 mi
7:53 AM51 °FPassing clouds.No wind74%30.29 "Hg10 mi
6:53 AM50 °FScattered clouds.No wind74%30.28 "Hg10 mi
5:53 AM47 °FPassing clouds.No wind80%30.28 "Hg10 mi
4:53 AM50 °FPassing clouds.8 mph74%30.27 "Hg10 mi
3:53 AM52 °FPassing clouds.10 mph69%30.26 "Hg10 mi
2:53 AM51 °FPassing clouds.8 mph71%30.25 "Hg10 mi
1:53 AM51 °FScattered clouds.9 mph74%30.24 "Hg10 mi
12:53 AM51 °FScattered clouds.7 mph77%30.22 "Hg10 mi
11:53 PM
Jul 28
56 °FScattered clouds.5 mph70%30.21 "Hg10 mi
Weather by CustomWeather, © 2014

See weather overviewHow to use our weather pages